Temp
23 23 23 24 24 23 24 24 23 24 27 26 22 21 22 22 20 21 21 20 21 22 22 23 24 23 23 22 21 21 20 20 20 20 20 20 21 21 21 22 22 22 23 22 22 22 22 22 22 22 22 21 21 22 23 23 22 22 22 22 22 22 22
22 22 23 24 24 24 24 23 24 26 26 25 23 20 21 21 20 20 20 19 19 20 20 22 23 23 23 22 21 20 20 19 19 19 19 19 20 20 20 21 22 22 23 23 22 22 22 22 22 21 21 21 21 22 22 23 23 22 22 22 22 22 22
21 22 22 22 23 24 24 24 26 26 22 21 22 20 20 20 19 20 20 20 20 19 19 21 21 21 21 21 20 20 19 18 18 18 18 18 18 19 20 21 21 22 23 23 23 22 22 22 22 22 21 21 21 21 21 21 22 22 22 22 22 22 22
22 23 22 21 22 24 24 24 26 25 23 22 22 22 21 20 20 20 19 19 19 18 18 19 20 20 20 20 19 18 18 17 17 17 16 17 17 18 19 20 20 21 22 23 23 23 23 23 22 22 22 21 21 21 21 21 21 21 21 20 20 21 22
21 21 21 20 20 22 23 23 23 23 24 24 23 23 23 21 20 20 19 19 18 17 17 19 20 19 19 19 18 18 17 17 16 16 15 15 16 17 17 18 19 19 20 21 22 22 22 22 23 22 22 22 21 21 21 21 21 21 21 20 19 20 20
20 19 19 19 19 20 22 23 22 22 23 22 21 21 22 22 21 21 20 19 17 16 17 19 20 20 19 19 18 18 17 16 16 15 14 14 14 15 16 17 17 17 18 19 20 21 22 22 22 22 22 22 22 21 21 21 20 21 21 20 20 19 19
19 18 19 19 19 20 21 22 22 23 23 22 20 19 21 21 21 22 21 19 16 16 18 19 20 20 19 19 18 18 17 16 16 15 14 14 14 14 15 15 16 16 17 18 19 20 21 21 21 21 22 22 22 22 21 21 21 21 21 20 21 21 20
19 19 19 20 20 20 21 21 21 22 22 22 21 21 21 21 21 21 20 18 16 16 19 20 20 19 19 18 18 18 17 16 16 15 14 14 14 14 14 14 14 15 16 18 19 19 20 20 21 21 21 21 22 22 21 21 21 21 21 20 20 21 21
18 18 19 19 19 20 21 20 20 21 21 21 21 22 22 21 20 20 20 18 16 17 19 20 20 20 19 19 18 18 17 17 16 15 15 14 14 13 13 13 14 15 16 17 17 17 18 19 20 20 20 20 21 21 21 21 21 21 21 20 20 20 21
17 17 17 17 19 20 20 19 20 20 20 21 21 21 20 20 19 20 20 18 16 17 19 19 19 20 19 19 19 18 18 17 17 16 16 15 14 14 13 13 13 14 14 15 15 16 16 17 18 19 19 19 19 19 19 20 20 20 20 20 20 20 20
17 16 16 17 19 19 19 19 19 19 20 21 21 20 20 20 20 19 19 17 16 17 18 18 19 19 18 19 18 18 17 17 17 16 16 16 15 14 13 13 13 14 14 14 14 15 15 16 16 17 18 18 17 17 18 19 19 19 19 19 19 20 20
17 17 16 17 19 18 18 18 19 19 19 20 20 19 19 20 19 18 18 18 17 17 18 18 18 18 18 18 17 17 17 17 17 17 16 16 15 14 13 13 13 13 14 14 14 14 15 15 15 16 16 17 17 16 16 17 17 18 18 18 18 19 19
16 17 17 17 18 18 18 18 18 18 19 19 19 19 19 19 19 18 19 19 18 18 18 18 18 18 17 16 16 16 16 16 16 16 16 16 16 15 14 13 12 12 13 13 14 14 14 15 15 15 15 16 16 16 16 16 16 17 17 18 18 18 19
16 16 16 17 17 17 17 18 18 18 19 19 19 19 19 19 19 19 19 20 19 19 18 17 17 17 17 16 15 15 15 16 16 16 16 16 15 15 14 13 12 12 12 13 13 13 14 14 15 15 15 16 16 16 16 16 16 16 17 18 18 18 18
15 16 16 17 17 17 17 17 18 18 18 18 18 19 19 19 18 18 19 19 18 18 18 17 16 16 16 15 15 14 14 15 15 15 15 15 15 14 14 13 13 12 12 13 14 14 14 14 14 15 15 16 16 16 16 16 16 16 16 17 17 17 18
16 15 16 16 17 17 17 17 17 18 18 18 18 18 19 19 18 18 18 18 17 17 17 16 16 16 16 15 15 14 13 13 14 14 14 14 14 14 13 13 12 12 12 13 13 14 14 14 14 14 15 15 16 16 16 16 16 17 17 17 17 17 18
16 15 16 16 16 17 17 17 17 18 18 18 17 17 17 18 19 18 18 18 17 16 17 17 17 17 16 15 14 14 13 13 13 13 14 13 13 13 13 13 12 12 11 12 12 13 14 14 14 14 15 15 15 15 16 16 16 17 17 17 17 17 17
16 15 15 16 16 16 16 16 16 16 17 17 17 17 17 17 18 18 18 17 16 17 17 17 17 17 16 14 13 13 13 13 13 13 13 13 13 13 12 12 12 11 11 11 12 13 13 14 14 15 15 15 14 14 15 16 16 16 17 17 17 17 17
16 16 15 15 15 15 15 15 15 15 16 16 16 16 16 16 17 17 17 16 16 16 17 16 16 15 14 13 13 12 12 12 12 12 12 12 12 12 12 12 11 11 11 11 12 13 14 14 14 14 15 15 15 15 15 15 15 16 16 16 17 17 17
16 15 15 15 14 14 14 15 15 15 15 16 15 15 15 16 16 17 16 16 16 16 16 15 14 14 14 14 13 12 12 12 12 12 12 11 11 11 12 11 11 11 11 11 11 13 13 14 14 14 15 15 15 15 15 15 15 15 16 16 16 16 17
15 16 16 16 14 14 14 14 15 15 15 15 16 15 15 15 16 16 16 16 16 16 15 14 14 14 15 15 14 13 12 12 12 12 12 11 11 11 11 11 11 11 11 11 11 12 12 13 13 14 14 15 15 15 15 15 15 15 15 15 16 16 16
15 16 16 15 15 15 15 14 14 14 15 15 15 15 14 14 15 15 15 15 15 15 15 14 14 14 15 16 15 14 12 12 12 12 12 11 11 11 11 11 11 11 11 11 12 12 12 12 12 14 14 15 15 15 15 15 16 16 15 15 16 16 16
15 15 15 15 15 15 14 14 14 14 14 14 14 15 15 13 13 14 15 15 15 15 14 14 14 14 15 16 16 13 12 12 12 11 11 11 11 11 11 11 11 11 11 11 12 12 11 11 12 13 14 14 15 15 15 15 15 16 15 16 16 17 17
15 15 15 16 15 14 14 13 14 14 13 13 14 15 14 13 13 13 14 15 14 14 13 13 14 15 16 15 14 12 11 12 11 11 11 11 11 11 11 11 11 11 11 11 11 11 11 12 13 13 13 14 14 15 15 15 15 15 15 16 17 16 17
15 14 14 16 15 14 14 14 14 13 13 13 14 14 13 12 13 13 13 14 14 13 12 13 14 14 14 13 11 11 11 11 11 11 10 10 10 10 10 10 10 11 11 11 11 11 11 11 12 12 13 14 14 14 15 15 15 14 15 16 16 17 17
15 15 15 15 15 14 14 14 13 12 13 14 14 13 12 12 13 12 12 13 12 12 12 12 12 12 12 11 11 11 11 10 10 10 10 10 10 10 10 9 9 10 10 10 11 11 11 11 11 11 12 13 14 14 14 14 15 15 15 15 16 17 17
14 14 13 14 14 14 14 13 12 12 13 13 12 12 12 12 12 12 12 12 11 11 11 11 11 11 11 10 10 10 10 10 10 10 9 9 9 9 9 9 9 9 9 10 11 11 11 11 11 11 11 12 13 14 14 14 14 15 15 15 16 16 17
14 13 13 13 13 13 13 13 13 13 13 12 12 12 12 12 11 12 12 11 11 11 11 11 10 10 10 10 10 9 9 9 9 9 9 9 8 9 9 9 9 9 8 9 10 11 11 11 11 11 12 12 13 14 14 14 14 14 14 15 15 16 16
14 14 14 13 13 13 13 13 14 13 12 12 11 12 12 12 11 11 11 11 10 10 10 10 10 9 9 9 9 9 9 9 9 9 8 8 8 8 8 8 8 8 8 8 8 10 11 11 11 11 12 12 13 14 14 14 14 14 14 14 15 15 16
13 13 13 13 13 13 13 12 12 12 12 11 11 11 12 12 11 11 11 10 10 10 9 9 9 9 9 9 9 9 9 8 8 8 8 8 7 7 7 7 7 7 7 8 7 8 10 11 10 10 11 11 12 13 13 14 14 14 14 14 14 15 15
12 13 14 14 13 13 13 12 12 11 11 11 11 11 11 11 11 10 10 10 9 9 9 9 9 9 9 8 8 8 8 8 8 8 7 7 7 7 7 7 7 7 7 7 7 7 9 10 10 9 10 11 12 12 13 13 13 14 14 14 14 14 14
12 13 14 13 12 12 12 12 12 12 11 11 11 10 10 10 10 10 9 9 9 9 9 8 8 8 8 8 8 8 8 8 8 7 7 7 7 7 6 6 6 6 6 6 7 7 7 9 10 10 10 10 11 12 12 13 13 13 13 13 14 14 14
12 13 13 13 12 12 12 12 12 12 12 11 11 10 10 10 10 9 9 9 9 9 8 8 8 8 8 8 8 8 8 8 7 7 7 7 6 6 6 6 6 6 6 6 6 6 6 7 9 10 10 10 11 11 12 12 12 12 13 13 13 14 13
12 13 14 13 12 13 13 13 12 12 11 11 11 10 10 10 10 9 9 9 9 8 8 8 8 8 8 8 8 8 7 7 7 7 7 6 6 6 6 6 6 6 6 6 6 6 6 6 7 8 9 10 11 10 10 11 10 10 11 12 12 13 13
13 14 14 13 12 13 13 13 12 12 11 11 11 10 10 10 10 9 9 9 9 9 8 8 8 8 8 8 8 7 7 7 7 6 6 6 6 6 6 6 6 6 6 6 5 6 6 6 6 6 7 8 9 9 9 9 10 10 10 10 11 12 12
12 12 13 12 12 12 12 12 12 12 11 11 11 10 10 10 10 9 9 9 8 8 8 8 8 8 8 8 7 7 7 7 7 6 6 6 6 6 6 6 6 6 6 6 6 5 5 6 6 6 6 6 7 8 8 8 8 9 9 9 10 11 11
11 11 11 11 11 11 11 11 11 11 10 10 10 10 10 10 9 9 9 8 8 8 8 8 8 8 8 7 7 7 7 6 6 6 6 5 5 5 5 5 6 6 6 6 6 6 6 6 6 6 6 6 6 6 7 7 8 8 8 8 9 10 11
Height
1498 1499 1498 1495 1496 1498 1495 1494 1497 1493 1485 1488 1496 1499 1494 1495 1508 1513 1512 1523 1526 1524 1529 1525 1522 1528 1528 1530 1533 1531 1532 1532 1530 1530 1529 1529 1529 1528 1529 1529 1530 1532 1533 1535 1537 1539 1542 1544 1547 1550 1552 1553 1554 1556 1558 1561 1564 1566 1568 1571 1573 1575 1577
1500 1500 1499 1496 1496 1494 1494 1496 1493 1488 1491 1495 1497 1505 1506 1504 1513 1512 1511 1526 1531 1528 1532 1528 1524 1528 1529 1530 1533 1533 1533 1533 1532 1532 1532 1531 1530 1529 1529 1528 1529 1530 1531 1533 1535 1538 1541 1543 1545 1547 1549 1552 1553 1555 1557 1559 1561 1564 1566 1569 1571 1573 1575
1501 1499 1500 1499 1497 1494 1494 1492 1485 1489 1504 1506 1501 1505 1509 1510 1514 1513 1512 1519 1524 1526 1532 1532 1531 1533 1533 1533 1534 1535 1535 1535 1535 1534 1534 1533 1532 1531 1530 1529 1530 1530 1531 1532 1534 1536 1539 1541 1543 1544 1546 1548 1550 1552 1555 1558 1561 1562 1565 1567 1569 1571 1573
1499 1498 1498 1499 1497 1494 1494 1493 1489 1490 1496 1499 1498 1496 1496 1502 1507 1513 1520 1522 1527 1534 1537 1536 1536 1536 1536 1537 1537 1538 1539 1539 1538 1537 1536 1536 1534 1533 1532 1531 1531 1530 1531 1532 1533 1536 1538 1540 1542 1543 1545 1547 1548 1551 1553 1556 1559 1561 1563 1567 1569 1570 1572
1499 1502 1503 1503 1502 1497 1495 1495 1493 1494 1492 1491 1495 1490 1486 1491 1495 1506 1523 1528 1532 1541 1542 1538 1537 1537 1538 1539 1539 1541 1542 1541 1541 1540 1539 1538 1536 1535 1533 1532 1531 1530 1529 1530 1530 1533 1536 1538 1540 1542 1544 1546 1548 1550 1551 1554 1557 1558 1561 1564 1567 1569 1570
1503 1509 1510 1509 1508 1503 1498 1494 1491 1494 1493 1493 1502 1501 1492 1489 1488 1492 1505 1523 1539 1546 1542 1537 1535 1537 1539 1539 1541 1543 1543 1543 1543 1542 1541 1540 1538 1536 1534 1533 1531 1529 1528 1528 1528 1530 1533 1536 1538 1541 1543 1545 1547 1549 1550 1552 1554 1556 1558 1560 1563 1566 1567
1507 1512 1512 1510 1511 1507 1502 1499 1496 1496 1493 1493 1501 1504 1496 1491 1492 1488 1493 1521 1547 1546 1540 1538 1535 1537 1540 1540 1542 1543 1544 1545 1544 1544 1543 1541 1540 1538 1535 1533 1531 1530 1529 1528 1529 1530 1533 1536 1537 1539 1542 1544 1546 1548 1548 1550 1552 1554 1556 1558 1560 1561 1563
1510 1511 1510 1509 1509 1506 1503 1502 1502 1500 1499 1497 1497 1499 1495 1490 1493 1494 1498 1526 1550 1545 1538 1538 1536 1538 1541 1542 1543 1544 1545 1546 1545 1545 1544 1542 1541 1539 1536 1534 1532 1531 1530 1529 1530 1531 1533 1535 1537 1539 1541 1543 1544 1546 1547 1549 1551 1553 1556 1557 1559 1559 1561
1516 1515 1513 1511 1508 1505 1505 1506 1506 1504 1502 1503 1501 1499 1498 1495 1497 1496 1496 1520 1545 1543 1536 1537 1536 1539 1541 1541 1544 1545 1545 1547 1546 1546 1546 1544 1543 1540 1537 1535 1533 1532 1532 1531 1532 1533 1533 1535 1536 1537 1540 1542 1544 1545 1547 1549 1551 1552 1554 1557 1558 1559 1560
1515 1517 1515 1513 1508 1505 1507 1508 1509 1508 1505 1505 1504 1500 1500 1502 1504 1501 1500 1520 1543 1541 1535 1537 1537 1538 1541 1542 1544 1546 1546 1547 1547 1547 1547 1545 1543 1541 1539 1537 1535 1534 1534 1534 1534 1535 1535 1536 1536 1537 1539 1542 1544 1545 1546 1548 1550 1552 1553 1555 1557 1558 1559
1512 1516 1517 1514 1507 1506 1511 1512 1511 1510 1508 1506 1503 1501 1502 1501 1503 1509 1514 1525 1540 1541 1537 1538 1538 1539 1542 1543 1545 1547 1547 1547 1547 1547 1547 1546 1544 1543 1541 1539 1538 1537 1537 1537 1537 1537 1538 1538 1538 1538 1538 1540 1542 1544 1545 1547 1548 1550 1551 1553 1555 1556 1558
1516 1517 1518 1515 1511 1511 1514 1514 1513 1512 1510 1507 1505 1506 1509 1504 1505 1518 1523 1523 1531 1537 1537 1538 1539 1540 1543 1546 1547 1548 1548 1548 1548 1547 1547 1546 1545 1544 1543 1541 1540 1539 1539 1539 1539 1539 1539 1540 1539 1539 1539 1539 1540 1542 1545 1546 1546 1547 1549 1551 1552 1554 1556
1519 1518 1518 1517 1515 1516 1516 1515 1515 1515 1512 1511 1511 1513 1514 1509 1509 1517 1521 1520 1526 1532 1534 1538 1540 1541 1544 1548 1549 1549 1549 1549 1549 1548 1547 1547 1546 1546 1545 1544 1543 1543 1543 1542 1542 1542 1542 1541 1541 1541 1540 1540 1540 1541 1542 1544 1544 1545 1546 1548 1549 1551 1553
1522 1521 1520 1519 1518 1518 1518 1517 1517 1517 1515 1514 1515 1515 1515 1514 1515 1516 1517 1519 1525 1530 1534 1540 1542 1544 1546 1549 1550 1551 1550 1550 1550 1549 1549 1548 1548 1548 1547 1547 1547 1546 1545 1545 1545 1544 1544 1543 1542 1542 1542 1541 1541 1541 1541 1541 1542 1543 1544 1545 1547 1549 1550
1524 1523 1521 1520 1520 1519 1518 1519 1518 1518 1517 1517 1517 1517 1517 1518 1521 1521 1520 1524 1531 1535 1537 1541 1544 1546 1547 1548 1550 1552 1551 1551 1551 1550 1550 1550 1550 1550 1549 1549 1549 1548 1547 1547 1546 1546 1545 1545 1544 1543 1542 1542 1542 1542 1541 1541 1541 1541 1542 1543 1545 1547 1548
1522 1524 1522 1521 1520 1518 1518 1520 1519 1517 1517 1518 1518 1519 1519 1519 1523 1526 1527 1530 1535 1538 1540 1543 1546 1547 1547 1549 1550 1551 1552 1552 1552 1551 1551 1551 1551 1551 1551 1551 1550 1550 1549 1548 1547 1547 1546 1546 1545 1544 1543 1542 1542 1542 1542 1541 1541 1541 1541 1542 1544 1545 1545
1519 1523 1523 1521 1520 1521 1520 1519 1518 1518 1518 1519 1521 1522 1522 1521 1521 1524 1525 1527 1532 1537 1540 1542 1543 1545 1547 1550 1551 1552 1552 1553 1553 1552 1552 1552 1552 1552 1552 1552 1552 1551 1551 1550 1548 1548 1547 1546 1546 1545 1544 1543 1543 1542 1542 1541 1541 1541 1541 1541 1542 1543 1543
1519 1523 1523 1522 1523 1524 1522 1520 1520 1521 1521 1521 1523 1525 1526 1525 1523 1522 1524 1527 1533 1537 1538 1539 1542 1544 1548 1551 1552 1553 1553 1553 1553 1553 1553 1553 1553 1553 1553 1553 1553 1552 1551 1550 1549 1548 1547 1547 1546 1545 1545 1544 1544 1543 1542 1542 1541 1541 1540 1540 1541 1541 1542
1516 1520 1524 1528 1528 1524 1522 1523 1524 1525 1525 1524 1525 1528 1528 1528 1527 1527 1529 1532 1536 1538 1539 1542 1545 1547 1550 1552 1553 1553 1553 1553 1553 1553 1553 1554 1554 1554 1554 1553 1553 1552 1551 1551 1550 1549 1548 1547 1546 1545 1545 1545 1545 1544 1543 1542 1541 1541 1540 1540 1540 1540 1541
1518 1520 1523 1527 1529 1525 1524 1526 1526 1526 1527 1527 1528 1531 1531 1530 1529 1530 1532 1535 1538 1540 1542 1545 1547 1549 1550 1551 1552 1553 1553 1553 1554 1553 1553 1553 1554 1554 1554 1553 1553 1553 1552 1551 1550 1549 1548 1547 1546 1545 1545 1545 1545 1544 1543 1542 1541 1541 1540 1539 1539 1539 1539
1521 1518 1515 1519 1526 1527 1526 1527 1526 1526 1526 1526 1526 1529 1532 1534 1533 1532 1534 1537 1539 1541 1544 1546 1547 1547 1547 1548 1550 1552 1553 1553 1554 1554 1554 1554 1553 1553 1553 1553 1553 1552 1552 1551 1550 1549 1549 1548 1547 1545 1545 1544 1543 1543 1543 1542 1541 1540 1539 1539 1538 1538 1538
1521 1517 1516 1521 1526 1526 1523 1524 1526 1527 1527 1528 1527 1527 1531 1536 1537 1536 1537 1539 1540 1542 1544 1546 1546 1546 1546 1544 1544 1549 1552 1553 1554 1554 1554 1554 1553 1553 1552 1552 1552 1552 1551 1550 1549 1549 1549 1548 1547 1546 1545 1544 1543 1542 1542 1541 1541 1540 1539 1538 1537 1536 1536
1522 1521 1521 1521 1523 1523 1522 1524 1528 1529 1530 1530 1530 1528 1529 1534 1538 1538 1538 1539 1541 1543 1545 1546 1546 1545 1542 1539 1542 1548 1551 1551 1552 1553 1554 1554 1554 1553 1552 1551 1551 1550 1549 1548 1548 1548 1548 1547 1546 1545 1545 1544 1543 1542 1541 1540 1540 1539 1538 1537 1536 1536 1535
1521 1523 1521 1515 1516 1521 1524 1526 1528 1530 1530 1532 1532 1531 1531 1534 1538 1539 1539 1539 1541 1544 1546 1546 1545 1543 1540 1539 1544 1549 1550 1550 1551 1552 1552 1553 1553 1553 1553 1551 1550 1548 1547 1547 1547 1547 1547 1546 1544 1544 1543 1543 1542 1541 1540 1539 1539 1538 1537 1536 1536 1535 1534
1520 1525 1523 1515 1514 1521 1524 1526 1528 1531 1532 1532 1531 1530 1532 1535 1538 1539 1540 1541 1542 1545 1547 1546 1545 1544 1544 1544 1547 1549 1549 1549 1550 1550 1550 1550 1550 1551 1551 1550 1549 1548 1547 1546 1546 1546 1545 1544 1543 1542 1542 1541 1540 1540 1540 1539 1538 1537 1536 1535 1534 1534 1533
1520 1521 1521 1517 1517 1521 1524 1526 1530 1532 1531 1529 1529 1531 1534 1537 1538 1540 1542 1542 1543 1545 1546 1546 1546 1547 1547 1548 1548 1548 1549 1549 1549 1549 1549 1548 1548 1548 1548 1548 1548 1547 1546 1545 1544 1543 1543 1543 1542 1541 1540 1539 1538 1538 1537 1538 1537 1535 1534 1533 1532 1532 1531
1522 1523 1526 1526 1523 1522 1524 1527 1530 1531 1530 1528 1530 1534 1536 1537 1539 1540 1542 1542 1543 1544 1545 1546 1547 1547 1548 1548 1548 1548 1549 1548 1548 1547 1547 1546 1546 1545 1545 1545 1546 1545 1544 1543 1542 1541 1541 1541 1540 1539 1538 1536 1536 1535 1535 1535 1535 1534 1533 1532 1531 1530 1529
1523 1525 1526 1525 1522 1522 1525 1526 1526 1527 1529 1530 1533 1534 1535 1537 1539 1539 1540 1541 1542 1543 1544 1545 1546 1546 1547 1547 1547 1548 1548 1547 1547 1546 1545 1545 1544 1543 1543 1543 1542 1542 1541 1541 1539 1539 1538 1538 1537 1536 1535 1534 1532 1532 1532 1532 1532 1531 1530 1530 1529 1528 1527
1521 1521 1521 1521 1522 1524 1526 1526 1525 1527 1530 1532 1533 1534 1534 1536 1538 1538 1539 1540 1541 1542 1543 1543 1544 1544 1545 1545 1546 1546 1546 1546 1545 1545 1544 1543 1542 1541 1540 1540 1539 1538 1538 1537 1537 1536 1535 1535 1534 1533 1532 1531 1529 1529 1529 1529 1528 1528 1527 1527 1526 1525 1525
1521 1521 1520 1522 1524 1525 1526 1527 1528 1529 1530 1531 1533 1534 1534 1535 1536 1537 1538 1539 1539 1540 1541 1541 1542 1543 1543 1543 1544 1544 1544 1544 1544 1543 1542 1541 1540 1539 1538 1537 1536 1535 1534 1533 1533 1532 1532 1532 1532 1530 1529 1528 1527 1526 1525 1525 1525 1525 1524 1523 1522 1522 1522
1523 1521 1518 1520 1523 1524 1525 1527 1528 1529 1530 1531 1532 1533 1533 1534 1535 1536 1537 1538 1538 1539 1539 1540 1540 1540 1540 1541 1541 1541 1542 1542 1541 1541 1541 1539 1539 1537 1536 1535 1533 1532 1531 1530 1529 1528 1528 1528 1528 1527 1526 1525 1524 1523 1522 1521 1521 1521 1520 1519 1518 1518 1518
1521 1518 1517 1519 1522 1522 1523 1525 1525 1526 1528 1529 1530 1531 1532 1533 1534 1534 1535 1536 1537 1537 1538 1538 1538 1538 1538 1538 1538 1538 1539 1538 1538 1539 1538 1537 1536 1535 1534 1532 1531 1529 1528 1527 1526 1525 1524 1524 1524 1523 1522 1521 1521 1520 1519 1518 1518 1517 1517 1516 1515 1514 1514
1517 1516 1516 1519 1521 1521 1521 1522 1522 1523 1525 1526 1528 1529 1530 1531 1532 1533 1534 1534 1535 1535 1536 1536 1536 1536 1536 1536 1536 1535 1535 1535 1535 1535 1535 1534 1534 1532 1531 1530 1528 1527 1525 1524 1523 1522 1521 1520 1519 1519 1518 1517 1517 1516 1516 1515 1514 1513 1513 1512 1512 1511 1511
1514 1511 1512 1515 1517 1516 1515 1516 1519 1521 1523 1524 1525 1527 1528 1529 1530 1531 1531 1532 1533 1533 1533 1534 1534 1534 1534 1534 1533 1533 1532 1532 1531 1531 1531 1530 1530 1529 1528 1527 1525 1524 1523 1521 1519 1518 1517 1516 1515 1514 1513 1513 1513 1513 1512 1512 1510 1509 1509 1508 1508 1508 1507
1511 1510 1511 1513 1515 1514 1513 1515 1518 1520 1520 1522 1523 1524 1526 1527 1527 1528 1529 1530 1530 1531 1531 1532 1532 1531 1531 1531 1531 1530 1529 1529 1528 1527 1527 1526 1525 1525 1524 1523 1522 1521 1520 1518 1516 1515 1513 1512 1511 1510 1510 1509 1508 1508 1508 1508 1507 1506 1505 1504 1504 1503 1503
1512 1512 1512 1512 1514 1514 1514 1515 1517 1518 1519 1520 1521 1522 1523 1524 1525 1526 1527 1528 1529 1529 1529 1529 1530 1529 1529 1529 1528 1527 1527 1526 1525 1524 1523 1522 1521 1520 1519 1519 1518 1517 1516 1515 1513 1511 1510 1509 1508 1507 1506 1505 1504 1504 1504 1504 1504 1502 1501 1500 1499 1499 1499
1512 1512 1511 1512 1512 1513 1514 1514 1516 1517 1518 1518 1519 1520 1521 1522 1523 1524 1525 1526 1526 1527 1527 1527 1527 1527 1527 1526 1526 1525 1524 1523 1522 1521 1519 1518 1517 1516 1515 1514 1514 1512 1511 1511 1510 1508 1507 1505 1504 1503 1502 1500 1500 1500 1499 1499 1499 1498 1497 1496 1495 1494 1495
Wind_Speed
1 1 2 4 6 4 7 10 10 7 4 5 5 6 8 8 8 7 7 6 7 8 8 6 6 7 9 11 13 15 16 16 15 16 16 14 12 10 7 4 6 13 19 22 22 23 24 24 23 23 24 25 26 27 25 23 23 23 23 22 22 21 20
4 1 2 3 4 5 4 8 10 6 1 5 5 4 7 9 8 7 9 10 9 8 7 6 4 5 7 10 13 15 16 17 17 17 17 16 15 13 11 8 5 6 11 17 19 20 22 22 23 24 24 25 25 26 25 23 23 23 24 23 23 22 21
6 3 4 6 5 5 4 3 6 6 5 7 6 5 7 10 8 6 11 12 8 5 4 5 4 5 6 8 10 13 16 17 17 17 17 17 16 15 13 10 6 5 8 13 16 18 19 20 21 23 24 25 25 25 24 23 22 23 23 23 23 23 22
6 5 3 5 7 6 3 3 4 5 5 5 6 7 6 8 9 7 9 11 6 4 4 4 5 6 6 8 9 11 14 16 16 17 17 16 16 16 14 12 11 7 2 7 11 14 15 16 19 19 21 24 23 23 23 21 20 22 23 23 24 25 24
6 3 1 2 1 2 5 7 7 8 6 3 4 7 5 6 8 8 9 9 6 6 4 3 7 7 7 8 9 10 13 15 16 17 17 16 17 17 16 14 14 15 13 7 5 11 11 12 16 17 18 21 21 22 22 19 20 21 21 21 22 23 25
4 4 5 4 5 5 3 2 3 4 6 5 6 8 7 5 6 5 9 8 7 5 1 2 7 8 8 10 10 10 12 14 14 16 17 17 17 17 18 18 17 17 17 14 9 11 10 7 11 15 17 17 18 20 20 19 22 22 19 20 22 22 23
5 7 4 2 3 5 3 3 3 1 3 5 7 8 7 7 4 2 5 7 7 3 1 4 8 9 10 11 12 11 12 13 14 15 16 17 19 19 20 20 21 20 17 15 12 9 9 6 7 11 13 14 16 18 21 22 23 21 20 21 22 22 23
5 5 2 1 2 3 2 3 4 2 2 2 4 4 3 7 6 3 6 7 6 4 5 7 10 12 12 11 12 12 12 12 13 15 16 17 19 22 23 24 24 22 18 15 13 11 9 7 9 9 9 12 16 19 23 24 21 18 18 19 19 20 20
6 6 5 4 3 2 1 4 4 3 3 2 4 4 4 6 3 3 7 6 6 6 7 9 11 12 12 12 13 12 12 12 12 14 15 16 19 22 25 28 28 26 23 19 16 14 11 9 10 11 9 7 12 18 22 23 21 19 18 17 17 18 18
6 5 4 2 3 4 3 4 4 4 4 2 3 3 6 7 2 2 4 6 10 9 10 11 11 11 11 12 13 12 12 13 13 14 15 16 19 22 24 27 30 30 28 25 22 19 15 11 10 11 11 8 3 10 18 21 20 20 21 18 17 18 17
1 3 4 4 2 4 4 4 5 5 5 3 3 4 5 4 4 2 3 12 16 14 12 12 11 10 10 11 11 12 12 12 13 14 15 17 19 21 22 25 28 29 29 27 26 23 20 15 11 9 10 10 6 1 8 16 19 19 18 17 17 17 17
7 7 7 5 3 4 4 4 4 5 5 3 2 0 2 2 3 4 8 15 18 16 14 12 11 10 9 10 10 11 11 12 13 13 15 17 19 20 22 24 26 27 27 26 25 24 22 19 15 10 7 8 8 7 3 4 11 16 15 15 17 18 18
7 6 6 4 3 4 3 3 4 4 4 4 4 6 6 5 0 7 12 15 15 15 14 11 10 9 9 10 9 10 11 12 13 14 15 17 18 20 21 23 24 24 24 24 23 22 21 20 18 15 11 6 6 7 5 2 4 12 16 16 17 18 19
6 5 4 3 3 3 3 3 3 3 3 5 5 6 8 8 9 11 13 15 13 12 11 10 9 8 9 9 9 9 11 12 13 14 16 17 18 19 20 20 21 22 22 22 21 20 19 19 18 17 15 11 7 4 6 7 7 10 15 18 17 16 18
5 3 2 2 1 2 3 4 4 4 4 5 5 5 7 8 10 11 12 13 11 9 10 11 10 8 7 7 8 9 10 12 13 14 15 16 17 18 18 19 19 20 21 20 19 19 18 18 17 16 15 14 12 8 2 6 9 11 14 17 17 14 14
4 4 2 2 2 3 4 5 6 7 6 5 5 5 4 4 9 12 11 10 9 9 11 11 10 9 7 5 6 8 9 11 12 13 15 15 16 17 17 18 18 19 19 20 19 18 17 16 16 14 13 12 12 10 7 2 5 9 12 15 14 14 15
4 5 2 1 3 5 5 5 6 6 6 7 7 6 5 4 6 8 6 6 9 11 12 10 9 9 7 4 4 6 7 9 11 12 13 14 14 15 16 16 17 18 18 19 20 19 17 16 15 14 12 11 11 10 8 5 1 4 9 12 12 13 17
4 6 3 4 6 5 3 6 5 4 4 5 6 7 7 5 2 3 6 9 11 11 10 8 8 6 4 4 4 5 6 8 9 10 11 12 13 13 14 15 16 17 17 18 20 19 18 16 14 13 12 11 10 11 9 7 5 1 4 9 10 11 16
2 5 4 6 5 3 5 6 5 4 3 3 5 7 6 5 5 7 9 10 9 8 7 7 6 4 3 5 6 5 6 7 8 9 10 11 12 12 13 14 15 16 17 18 19 19 18 17 16 14 12 11 10 11 10 9 7 4 1 3 7 10 13
1 4 6 4 3 5 5 5 4 3 3 4 5 6 6 4 4 7 8 8 8 7 6 6 5 3 4 6 6 5 5 6 7 8 9 10 11 11 12 13 14 14 15 16 18 19 18 18 17 17 15 13 11 11 11 10 9 6 4 1 3 7 10
2 4 5 2 3 4 5 5 5 3 2 3 3 3 6 5 3 5 7 7 8 7 6 5 2 1 3 5 6 6 3 6 6 7 8 9 10 11 12 12 13 13 14 16 18 19 18 17 18 18 17 16 15 14 12 11 10 9 7 5 4 4 7
3 4 3 3 4 4 5 7 7 4 4 3 2 3 4 6 4 5 7 8 7 7 6 4 2 2 4 5 6 7 3 4 6 6 7 8 11 12 13 14 14 13 15 18 20 19 17 17 18 18 17 16 17 17 15 13 12 11 11 10 7 5 5
3 4 4 4 4 1 6 9 9 7 4 2 2 4 5 7 7 6 7 8 8 7 5 3 2 4 6 3 6 6 1 6 7 7 7 8 10 11 13 16 15 16 19 22 21 18 17 17 19 20 19 17 17 18 18 16 14 13 14 14 11 8 7
3 4 4 3 0 4 8 9 9 8 4 0 5 6 4 7 9 7 7 8 8 6 4 2 3 4 4 1 6 4 6 9 9 10 10 10 10 10 12 14 17 21 23 22 19 17 17 20 22 22 22 21 19 18 18 18 17 16 16 16 14 12 11
3 3 5 4 1 6 9 10 10 8 4 3 5 3 6 9 10 8 6 6 6 5 3 3 3 3 4 6 7 7 9 10 11 12 12 12 12 12 12 13 17 21 22 22 21 19 19 22 23 23 23 24 23 20 19 19 19 19 19 19 18 16 14
4 3 4 4 1 5 10 11 11 8 4 2 2 6 10 11 9 7 6 5 4 4 4 4 4 4 5 7 8 9 10 11 12 13 13 14 14 14 14 15 16 17 18 21 24 23 22 21 21 21 24 26 26 24 22 20 19 20 21 21 21 21 19
3 3 4 5 2 5 12 13 9 6 5 2 8 9 8 7 6 6 6 5 4 5 5 5 5 6 6 7 8 9 10 11 12 13 13 14 15 16 16 16 15 15 17 21 24 25 25 24 23 23 26 28 28 28 26 23 21 21 22 22 22 23 23
4 3 3 1 2 7 15 11 4 5 5 6 7 6 5 5 6 5 5 6 6 6 6 6 6 7 7 8 8 8 9 10 11 13 14 15 16 18 18 18 17 17 17 19 23 25 25 25 26 27 28 30 31 31 29 27 25 24 23 23 23 24 24
4 4 1 4 6 10 14 7 2 7 8 5 3 3 3 5 6 5 5 6 6 6 7 7 7 7 8 8 8 9 9 10 11 13 15 16 17 18 19 20 20 19 19 19 21 24 25 25 26 28 28 30 33 33 31 29 28 27 26 26 25 25 24
4 6 6 3 4 8 11 6 4 8 8 5 4 4 5 5 6 6 6 6 6 7 7 7 8 8 8 8 9 10 10 11 12 13 15 16 17 18 20 21 21 22 22 22 22 23 24 24 24 26 28 29 32 33 34 32 30 29 29 29 28 27 26
2 4 7 8 8 10 11 10 9 9 7 6 6 6 6 6 6 7 7 7 7 7 8 8 9 10 9 10 11 12 12 13 13 13 14 15 16 18 19 21 22 23 24 24 23 23 24 23 23 24 27 29 31 33 34 34 33 31 30 31 31 30 28
6 4 3 5 6 8 10 11 12 12 11 10 9 9 8 7 7 8 8 8 8 8 9 9 10 10 11 12 13 13 14 15 14 14 15 16 17 19 20 21 22 22 22 23 23 23 24 24 23 24 26 29 30 31 33 34 34 33 31 31 31 31 30
9 8 8 8 7 7 11 15 15 14 13 11 11 11 10 9 9 8 8 9 9 9 9 9 10 12 13 13 14 15 16 16 17 17 18 18 19 20 20 20 20 20 21 22 23 24 25 25 25 26 27 28 29 30 31 33 34 34 33 32 31 31 31
7 7 7 9 7 7 10 13 14 14 14 13 12 12 11 11 10 9 9 10 10 10 10 10 11 13 14 14 15 17 17 18 18 19 20 21 21 21 20 20 20 21 22 23 24 25 26 26 26 27 27 28 28 28 29 30 32 33 33 32 32 32 32
9 8 8 7 8 9 9 7 9 11 12 13 14 13 12 11 10 9 10 10 10 11 11 11 11 13 14 16 16 17 18 19 20 21 21 22 22 21 21 22 22 22 22 23 24 26 26 26 26 27 27 27 28 27 27 28 30 32 31 31 33 32 31
13 14 14 12 11 13 12 9 9 10 11 12 13 13 12 11 10 10 10 10 10 11 11 12 13 14 15 17 17 18 20 20 21 22 23 23 24 24 23 23 23 23 23 23 24 25 25 25 26 26 27 27 28 28 27 26 27 30 31 31 33 33 31
17 18 17 13 12 14 13 11 11 11 11 11 12 12 11 11 10 9 9 9 10 12 13 14 14 15 16 17 18 19 21 21 22 23 24 25 25 25 24 24 23 24 24 24 24 24 25 26 27 28 29 30 29 29 28 27 27 30 32 33 34 35 33
Wind_Direction
103 267 250 247 251 223 188 200 209 209 227 250 234 192 185 198 186 162 150 121 111 134 140 125 105 84 67 51 41 40 36 33 36 36 30 20 12 7 355 312 234 223 216 209 208 207 206 206 207 206 205 206 214 226 231 228 225 225 224 223 222 222 224
110 33 242 203 259 274 213 199 199 183 224 274 257 199 186 200 196 169 159 150 151 168 156 125 111 78 62 51 40 36 34 31 32 31 28 24 18 11 1 346 311 257 222 210 211 213 211 208 209 212 210 210 220 230 234 233 231 229 227 226 226 226 226
126 153 210 186 201 256 291 259 196 186 209 219 220 220 196 196 198 174 166 166 162 167 145 116 99 65 52 51 44 37 32 29 27 25 23 22 22 21 20 14 353 297 239 219 215 216 214 209 211 214 212 214 225 229 230 231 230 231 231 229 229 229 228
154 169 212 196 182 200 250 266 205 204 229 213 206 221 210 202 204 174 164 175 158 92 70 79 87 74 57 54 50 41 35 31 28 25 22 20 21 23 27 30 30 25 288 227 220 218 218 214 213 213 210 214 220 221 224 228 227 231 236 234 234 235 232
187 175 54 12 51 196 211 208 196 195 213 238 224 220 224 236 219 184 177 184 141 80 42 70 95 83 65 62 57 48 43 38 34 30 26 23 22 23 27 30 34 38 42 58 158 193 206 215 215 213 210 212 213 213 221 225 221 228 238 235 231 234 236
170 103 62 26 360 345 318 229 211 199 207 218 213 207 211 250 257 215 192 176 119 82 4 95 99 87 76 74 66 57 50 43 41 36 31 29 27 26 29 32 35 40 45 58 100 164 183 193 204 209 211 212 212 213 216 216 213 218 226 226 224 225 232
96 103 87 23 349 333 342 22 19 319 242 233 220 212 204 212 244 271 195 155 107 102 169 112 101 92 84 79 71 66 58 48 45 40 34 34 34 33 36 37 39 45 55 67 84 132 166 159 163 191 209 214 213 212 212 213 215 217 216 218 226 229 232
105 137 160 2 304 261 237 61 36 339 293 292 275 299 278 215 207 219 203 159 112 136 155 125 112 100 92 86 77 73 67 55 48 42 37 35 35 38 43 45 47 52 65 79 85 102 130 135 132 151 188 212 212 208 211 218 222 223 219 216 224 233 238
157 175 188 186 196 213 148 74 45 16 12 325 279 305 281 233 210 258 234 179 125 150 153 131 120 108 97 93 84 77 71 61 52 47 42 39 37 39 44 50 55 59 65 73 77 83 95 113 128 134 143 188 219 214 214 223 228 230 231 223 218 226 235
189 188 184 173 159 147 113 71 57 35 22 338 273 238 228 222 181 309 258 144 126 145 148 133 128 117 102 95 87 78 71 63 57 51 47 45 41 39 41 46 53 59 62 65 69 73 78 92 122 140 134 124 223 234 222 222 225 231 237 230 220 222 225
67 93 73 33 42 134 122 81 66 45 24 347 279 236 232 215 164 129 104 127 137 147 146 138 131 119 106 97 86 73 62 57 55 52 50 49 46 42 41 43 48 55 58 61 64 67 70 76 95 133 150 137 105 72 232 225 223 230 239 235 227 225 224
63 73 75 51 42 88 96 85 73 50 32 10 327 190 17 336 205 158 124 137 145 146 144 140 131 121 106 91 76 63 56 53 51 51 50 50 46 43 41 40 43 47 51 55 58 62 66 69 76 91 130 160 144 115 98 237 227 225 231 235 232 230 228
79 74 76 67 65 86 86 72 70 56 45 50 65 71 45 9 32 141 143 150 147 143 146 140 127 120 102 83 68 57 55 52 48 48 47 46 43 41 38 36 37 38 41 47 51 55 60 65 69 74 83 115 160 162 157 156 222 224 227 232 235 235 235
94 78 81 78 72 112 125 106 95 80 66 72 76 76 68 68 88 116 143 150 140 138 144 136 130 124 100 85 73 57 50 47 46 45 44 42 40 38 36 33 32 32 34 40 45 46 51 58 62 65 69 75 84 135 194 203 208 221 230 234 238 241 240
115 95 104 102 80 148 141 131 137 143 133 118 111 105 101 103 106 116 137 144 137 137 137 133 136 132 106 86 72 60 48 41 42 43 40 38 36 34 34 31 27 27 28 32 38 39 39 44 50 56 62 65 66 69 105 209 212 218 227 233 239 245 244
145 130 146 125 135 185 168 150 150 153 148 132 120 115 111 125 131 134 146 154 148 147 145 140 141 138 124 92 63 58 50 40 38 39 37 33 31 29 28 27 24 22 22 23 26 28 30 33 34 40 51 54 55 60 62 78 218 222 224 226 233 241 239
151 135 161 166 181 203 187 144 134 135 132 122 117 111 90 95 145 155 156 138 130 142 154 154 152 149 137 104 61 48 46 41 36 36 33 29 26 25 23 22 19 18 16 16 17 18 20 22 22 24 31 33 35 40 46 49 59 228 225 224 229 238 240
154 132 160 205 208 210 146 103 93 91 115 126 123 118 103 86 93 92 89 102 120 140 155 155 154 150 132 117 106 67 47 40 33 30 28 24 20 19 18 15 12 11 10 9 10 11 12 12 12 14 18 17 13 16 23 34 41 32 227 223 225 230 235
157 133 179 211 210 164 99 99 97 81 88 103 102 106 107 101 102 103 104 111 121 130 135 137 145 148 136 143 139 104 66 43 28 24 19 15 14 11 9 7 4 4 4 2 1 3 5 5 3 1 4 4 360 358 3 12 21 21 347 228 226 227 229
168 166 198 205 142 118 108 110 125 132 151 160 146 132 124 119 130 135 132 131 132 137 142 143 149 157 154 152 148 124 78 46 27 17 9 5 3 1 359 357 355 355 356 354 353 355 357 357 355 352 349 347 347 348 348 352 359 4 9 346 250 241 236
240 219 207 154 124 161 166 147 142 151 161 169 196 171 132 122 139 152 151 155 157 158 161 159 163 194 189 178 169 157 96 44 27 11 3 356 350 350 349 347 346 345 345 344 344 347 349 349 348 346 341 337 336 336 338 339 340 344 349 346 328 285 258
243 254 223 185 204 210 163 137 125 100 84 75 320 267 156 140 150 160 159 163 168 170 171 179 213 232 234 225 177 159 126 27 11 359 355 348 342 341 337 337 339 336 332 332 335 340 342 339 337 337 335 333 330 330 331 330 328 330 330 328 327 318 292
222 249 240 214 225 169 118 127 129 119 99 67 287 243 183 149 152 165 168 165 170 181 185 192 234 232 232 210 129 127 4 345 348 341 339 337 335 333 329 330 329 323 323 327 330 335 333 326 326 329 329 328 326 325 325 323 323 323 318 312 311 308 303
207 240 251 236 210 97 121 136 136 126 107 175 232 223 173 146 153 162 171 171 169 178 190 203 233 237 248 17 66 46 328 329 331 325 326 327 325 325 325 322 315 312 317 322 323 324 321 317 319 322 322 322 320 320 319 319 321 320 311 303 300 298 299
211 225 248 247 106 106 132 145 138 131 141 220 231 189 116 136 149 147 158 173 168 175 205 238 241 247 295 334 351 339 320 318 317 315 317 317 317 318 318 315 312 311 312 312 310 312 313 314 315 316 314 315 315 314 313 314 315 313 306 300 297 294 292
234 230 251 252 191 126 144 145 136 148 196 225 145 110 113 134 147 148 167 191 191 205 233 255 256 262 288 304 312 313 309 308 307 309 312 311 311 314 313 313 314 313 308 304 302 303 304 307 309 308 307 307 307 307 308 308 308 305 301 299 297 293 290
239 241 237 250 273 139 153 150 144 185 227 103 109 123 127 141 160 177 199 213 219 231 241 248 253 264 275 283 291 296 298 300 302 304 307 309 309 311 311 312 312 309 304 300 296 294 296 298 298 299 300 301 301 301 302 302 302 300 298 297 294 291 290
227 239 208 226 32 136 160 163 154 185 178 112 115 143 153 164 187 207 220 223 223 230 244 252 255 262 269 274 280 285 287 292 296 298 301 304 306 308 308 308 308 306 303 300 294 290 290 292 292 293 294 295 295 295 297 298 299 299 297 295 293 291 289
243 283 326 66 80 145 171 181 110 143 155 141 141 183 190 187 201 214 223 228 227 228 242 253 257 260 264 268 273 277 280 284 288 292 295 298 300 303 304 304 305 304 301 299 296 292 288 288 289 288 288 290 290 290 291 293 295 296 297 295 293 291 288
255 268 249 203 153 167 180 191 154 145 158 168 178 205 221 212 207 211 218 230 234 234 243 253 258 263 268 271 274 277 279 282 283 286 288 291 294 297 300 301 301 300 299 296 294 291 288 287 287 286 285 285 285 285 287 288 289 291 294 294 293 292 289
225 238 215 204 211 206 198 203 199 186 193 203 200 212 222 216 212 216 220 228 231 233 242 250 258 268 274 276 279 282 284 285 285 284 284 287 290 292 295 297 297 297 297 295 292 289 288 288 288 286 283 281 280 280 282 284 286 287 288 289 291 292 291
228 245 205 184 205 214 213 218 218 213 216 219 214 214 215 212 215 217 220 225 230 234 240 246 258 270 275 279 284 287 289 289 289 288 287 288 290 292 293 294 294 293 291 289 288 286 286 288 288 287 284 281 279 278 279 281 283 284 283 284 286 288 289
234 248 235 210 202 215 223 224 224 225 224 219 212 210 212 214 215 219 223 226 229 235 242 250 263 273 278 283 287 288 290 291 292 292 292 293 293 294 293 292 291 288 285 284 284 283 284 285 286 286 285 283 281 279 278 280 282 282 282 281 281 283 285
241 248 241 230 231 244 236 222 220 225 224 217 210 207 209 215 218 222 227 229 232 240 247 255 264 272 279 284 286 288 289 291 292 294 295 295 294 293 292 291 288 285 283 282 283 282 283 284 284 285 285 284 282 280 278 278 280 281 281 280 279 279 280
261 270 273 260 250 262 266 243 223 220 214 210 209 208 210 217 220 222 227 233 239 245 251 258 266 274 280 284 285 287 289 290 293 295 295 295 295 294 292 290 286 283 282 280 281 281 281 282 282 283 283 282 281 280 278 276 277 278 277 276 276 275 276
267 270 275 273 259 256 258 247 231 219 207 204 207 209 212 216 219 224 231 236 245 255 261 267 273 276 280 282 285 288 290 291 293 295 295 295 294 293 292 289 285 283 282 280 280 280 281 281 280 280 279 277 276 276 275 273 272 272 272 272 273 274 274
261 265 270 273 265 257 251 241 232 223 211 205 208 212 214 215 220 228 233 239 253 264 269 272 276 278 280 282 284 287 289 291 293 294 295 294 293 292 291 288 285 284 283 282 280 280 280 280 279 278 277 275 274 274 273 269 267 267 268 269 271 273 273